UAE14X OMDB-OKKK

Flight info

Callsign UAE14X
Flight time 1h 39m
Altitude 40000
Route RIDAP DCT TUMAK DCT KUMBO/N0461F240 A453 DEBTI
Aircraft A35K/H-SDE2E3GHIJ3J4J5LM1ORWXY/LB1D1

Departure

Time 2026-05-04 15:01
Airport Dubai International Airport (OMDB)

Arrival

Time 2026-05-04 16:40
Airport Kuwait International Airport (OKKK)
Time Latitude Longitude Altitude Speed Heading
2026-05-04 14:35 25.24265 55.37522 27 ft 0 kts 211°
2026-05-04 14:50 25.24267 55.37523 27 ft 2 kts 211°
2026-05-04 14:50 25.24281 55.37532 26 ft 2 kts 211°
2026-05-04 14:50 25.24294 55.37542 26 ft 2 kts 211°
2026-05-04 14:50 25.24308 55.37551 25 ft 2 kts 211°
2026-05-04 14:51 25.24325 55.37558 25 ft 3 kts 178°
2026-05-04 14:51 25.24343 55.37555 25 ft 3 kts 144°
2026-05-04 14:51 25.24352 55.37546 25 ft 0 kts 120°
2026-05-04 14:52 25.24348 55.37554 26 ft 3 kts 118°
2026-05-04 14:52 25.24335 55.37583 25 ft 6 kts 116°
2026-05-04 14:53 25.24311 55.37636 27 ft 9 kts 117°
2026-05-04 14:53 25.24272 55.37704 27 ft 12 kts 122°
2026-05-04 14:53 25.24284 55.37783 27 ft 11 kts 44°
2026-05-04 14:53 25.24347 55.37833 28 ft 2 kts 34°
2026-05-04 14:56 25.24358 55.37841 28 ft 3 kts 34°
2026-05-04 14:57 25.24387 55.37862 27 ft 6 kts 34°
2026-05-04 14:57 25.24431 55.37895 30 ft 9 kts 34°
2026-05-04 14:57 25.24492 55.37941 31 ft 12 kts 34°
2026-05-04 14:57 25.24575 55.38006 29 ft 17 kts 36°
2026-05-04 14:58 25.24655 55.38064 30 ft 0 kts 32°
2026-05-04 14:58 25.24662 55.38068 30 ft 2 kts 32°
2026-05-04 14:58 25.24686 55.38084 31 ft 6 kts 28°
2026-05-04 14:58 25.24755 55.38090 32 ft 16 kts 339°
2026-05-04 14:59 25.24824 55.38008 31 ft 0 kts 299°
2026-05-04 15:00 25.24827 55.38000 31 ft 8 kts 293°
2026-05-04 15:00 25.25012 55.37622 32 ft 107 kts 302°
2026-05-04 15:00 25.25574 55.36613 166 ft 188 kts 298°
2026-05-04 15:01 25.26978 55.34066 1677 ft 191 kts 301°
2026-05-04 15:01 25.27718 55.32755 1930 ft 212 kts 302°
2026-05-04 15:01 25.28526 55.31316 2252 ft 225 kts 302°
2026-05-04 15:01 25.29296 55.29812 2869 ft 224 kts 295°
2026-05-04 15:02 25.29738 55.28201 3563 ft 220 kts 285°
2026-05-04 15:02 25.30021 55.26556 4270 ft 215 kts 283°
2026-05-04 15:02 25.30260 55.24949 4988 ft 207 kts 282°
2026-05-04 15:02 25.30478 55.23414 5693 ft 196 kts 282°
2026-05-04 15:03 25.30676 55.21973 6394 ft 182 kts 282°
2026-05-04 15:03 25.30854 55.20649 7049 ft 167 kts 283°
2026-05-04 15:03 25.31021 55.19415 7564 ft 156 kts 283°
2026-05-04 15:03 25.31174 55.18276 7939 ft 150 kts 283°
2026-05-04 15:04 25.31353 55.17032 8255 ft 180 kts 283°
2026-05-04 15:04 25.31567 55.15549 8446 ft 208 kts 282°
2026-05-04 15:04 25.31789 55.13898 8672 ft 226 kts 282°
2026-05-04 15:04 25.32025 55.12112 8904 ft 244 kts 282°
2026-05-04 15:05 25.32280 55.10192 9152 ft 261 kts 281°
2026-05-04 15:05 25.32551 55.08147 9417 ft 277 kts 281°
2026-05-04 15:05 25.32834 55.06007 9863 ft 284 kts 281°
2026-05-04 15:05 25.33123 55.03818 10283 ft 293 kts 281°
2026-05-04 15:06 25.33427 55.01532 10526 ft 308 kts 281°
2026-05-04 15:06 25.33746 54.99128 10718 ft 323 kts 281°
2026-05-04 15:06 25.34078 54.96618 10949 ft 336 kts 281°
2026-05-04 15:07 25.34804 54.91328 11363 ft 358 kts 283°
2026-05-04 15:07 25.35449 54.88655 11698 ft 362 kts 289°
2026-05-04 15:07 25.36202 54.86022 12106 ft 365 kts 289°
2026-05-04 15:07 25.36987 54.83306 12535 ft 368 kts 289°
2026-05-04 15:08 25.37758 54.80631 12930 ft 371 kts 289°
2026-05-04 15:08 25.38540 54.77908 13319 ft 374 kts 289°
2026-05-04 15:08 25.39330 54.75147 13715 ft 376 kts 289°
2026-05-04 15:08 25.40120 54.72383 14089 ft 377 kts 289°
2026-05-04 15:09 25.40915 54.69608 14514 ft 379 kts 289°
2026-05-04 15:09 25.41710 54.66820 14862 ft 380 kts 288°
2026-05-04 15:09 25.42504 54.64025 15096 ft 381 kts 288°
2026-05-04 15:10 25.44114 54.58405 15901 ft 384 kts 289°
2026-05-04 15:10 25.44334 54.57650 16012 ft 384 kts 289°
2026-05-04 15:10 25.45989 54.51999 16837 ft 388 kts 288°
2026-05-04 15:11 25.46822 54.49155 17250 ft 389 kts 288°
2026-05-04 15:11 25.47658 54.46297 17651 ft 392 kts 288°
2026-05-04 15:11 25.48497 54.43420 18047 ft 393 kts 288°
2026-05-04 15:11 25.49054 54.41506 18292 ft 395 kts 288°
2026-05-04 15:12 25.49897 54.38609 18651 ft 396 kts 288°
2026-05-04 15:12 25.50741 54.35703 19058 ft 396 kts 287°
2026-05-04 15:12 25.51590 54.32779 19444 ft 397 kts 287°
2026-05-04 15:12 25.52437 54.29858 19777 ft 400 kts 287°
2026-05-04 15:13 25.53290 54.26914 20119 ft 402 kts 287°
2026-05-04 15:13 25.54145 54.23958 20458 ft 404 kts 287°
2026-05-04 15:13 25.55006 54.20982 20770 ft 407 kts 287°
2026-05-04 15:13 25.55870 54.17994 21103 ft 409 kts 287°
2026-05-04 15:14 25.56727 54.15027 21442 ft 410 kts 287°
2026-05-04 15:14 25.57600 54.12004 21764 ft 412 kts 287°
2026-05-04 15:14 25.58477 54.08961 22087 ft 414 kts 287°
2026-05-04 15:14 25.59357 54.05908 22395 ft 416 kts 287°
2026-05-04 15:15 25.60236 54.02852 22717 ft 418 kts 287°
2026-05-04 15:15 25.61121 53.99776 23022 ft 420 kts 287°
2026-05-04 15:15 25.62012 53.96675 23323 ft 422 kts 287°
2026-05-04 15:16 25.63785 53.90498 23872 ft 424 kts 287°
2026-05-04 15:16 25.64673 53.87398 24146 ft 424 kts 286°
2026-05-04 15:16 25.66464 53.81140 24709 ft 426 kts 286°
2026-05-04 15:17 25.67363 53.77996 24973 ft 427 kts 286°
2026-05-04 15:17 25.69156 53.71713 25503 ft 428 kts 286°
2026-05-04 15:17 25.70055 53.68559 25762 ft 430 kts 286°
2026-05-04 15:18 25.70947 53.65427 26033 ft 431 kts 286°
2026-05-04 15:18 25.71850 53.62252 26301 ft 431 kts 286°
2026-05-04 15:18 25.72754 53.59073 26572 ft 433 kts 286°
2026-05-04 15:19 25.74562 53.52696 27129 ft 434 kts 285°
2026-05-04 15:19 25.75471 53.49481 27418 ft 436 kts 285°
2026-05-04 15:19 25.77289 53.43063 28039 ft 437 kts 285°
2026-05-04 15:20 25.78200 53.39845 28331 ft 438 kts 285°
2026-05-04 15:20 25.79115 53.36609 28613 ft 439 kts 285°
2026-05-04 15:20 25.80017 53.33415 28892 ft 440 kts 285°
2026-05-04 15:20 25.80926 53.30170 29173 ft 442 kts 285°
2026-05-04 15:21 25.81855 53.26863 29488 ft 443 kts 285°
2026-05-04 15:21 25.82775 53.23597 29773 ft 444 kts 285°
2026-05-04 15:21 25.85101 53.17229 30191 ft 452 kts 297°
2026-05-04 15:22 25.86749 53.14247 30421 ft 455 kts 299°
2026-05-04 15:22 25.88479 53.11290 30651 ft 457 kts 300°
2026-05-04 15:22 25.92043 53.05396 31123 ft 460 kts 300°
2026-05-04 15:23 25.93665 53.02350 31317 ft 457 kts 289°
2026-05-04 15:23 25.94539 52.98966 31548 ft 455 kts 279°
2026-05-04 15:23 25.95101 52.95500 31758 ft 457 kts 278°
2026-05-04 15:23 25.95755 52.92049 31952 ft 459 kts 282°
2026-05-04 15:24 25.97727 52.85259 32375 ft 464 kts 289°
2026-05-04 15:24 26.00361 52.78668 32836 ft 466 kts 292°
2026-05-04 15:25 26.01768 52.75440 33223 ft 464 kts 293°
2026-05-04 15:25 26.03195 52.72222 33620 ft 461 kts 293°
2026-05-04 15:25 26.04616 52.69042 34015 ft 458 kts 293°
2026-05-04 15:26 26.07455 52.62694 34603 ft 457 kts 293°
2026-05-04 15:26 26.08849 52.59569 34901 ft 456 kts 292°
2026-05-04 15:26 26.11659 52.53255 35507 ft 455 kts 292°
2026-05-04 15:27 26.13072 52.50103 35807 ft 454 kts 292°
2026-05-04 15:27 26.15913 52.43806 36348 ft 454 kts 292°
2026-05-04 15:28 26.18744 52.37533 37053 ft 451 kts 292°
2026-05-04 15:28 26.20145 52.34423 37388 ft 450 kts 292°
2026-05-04 15:28 26.22942 52.28190 37974 ft 449 kts 291°
2026-05-04 15:29 26.24310 52.25063 38229 ft 448 kts 291°
2026-05-04 15:30 26.29669 52.12580 39143 ft 446 kts 291°
2026-05-04 15:30 26.33693 52.03261 39862 ft 443 kts 291°
2026-05-04 15:31 26.36371 51.97059 40024 ft 443 kts 291°
2026-05-04 15:31 26.37621 51.93922 40024 ft 440 kts 287°
2026-05-04 15:32 26.40891 51.84405 39756 ft 439 kts 286°
2026-05-04 15:32 26.43034 51.78012 39753 ft 441 kts 286°
2026-05-04 15:34 26.48390 51.61993 39756 ft 440 kts 286°
2026-05-04 15:34 26.51584 51.52383 39758 ft 440 kts 285°
2026-05-04 15:35 26.54779 51.42741 39763 ft 441 kts 285°
2026-05-04 15:36 26.57979 51.33083 39768 ft 440 kts 285°
2026-05-04 15:36 26.60089 51.26705 39765 ft 440 kts 285°
2026-05-04 15:37 26.62215 51.20286 39769 ft 440 kts 285°
2026-05-04 15:37 26.64340 51.13861 39767 ft 440 kts 285°
2026-05-04 15:38 26.66458 51.07445 39770 ft 440 kts 285°
2026-05-04 15:38 26.68575 51.01020 39781 ft 440 kts 285°
2026-05-04 15:39 26.70649 50.94636 39767 ft 439 kts 285°
2026-05-04 15:40 26.73715 50.84984 39771 ft 438 kts 284°
2026-05-04 15:40 26.75759 50.78558 39768 ft 438 kts 284°
2026-05-04 15:41 26.77806 50.72133 39768 ft 438 kts 284°
2026-05-04 15:41 26.79853 50.65698 39775 ft 438 kts 284°
2026-05-04 15:42 26.81964 50.59294 39777 ft 438 kts 285°
2026-05-04 15:42 26.84139 50.52966 39777 ft 437 kts 285°
2026-05-04 15:43 26.86313 50.46620 39777 ft 437 kts 285°
2026-05-04 15:43 26.89100 50.40494 39780 ft 444 kts 294°
2026-05-04 15:44 26.92308 50.34572 39778 ft 444 kts 295°
2026-05-04 15:44 26.95568 50.28685 39777 ft 444 kts 295°
2026-05-04 15:45 26.98814 50.22806 39776 ft 443 kts 295°
2026-05-04 15:45 27.02046 50.16917 39778 ft 443 kts 295°
2026-05-04 15:46 27.05452 50.11195 39778 ft 448 kts 302°
2026-05-04 15:46 27.09465 50.05754 39778 ft 450 kts 303°
2026-05-04 15:47 27.13537 50.00415 39777 ft 449 kts 303°
2026-05-04 15:47 27.17581 49.95124 39776 ft 449 kts 303°
2026-05-04 15:48 27.21640 49.89788 39776 ft 449 kts 303°
2026-05-04 15:48 27.27714 49.81772 39777 ft 449 kts 303°
2026-05-04 15:49 27.31772 49.76409 39777 ft 449 kts 303°
2026-05-04 15:49 27.35824 49.71047 39776 ft 449 kts 303°
2026-05-04 15:50 27.39868 49.65690 39622 ft 445 kts 303°
2026-05-04 15:50 27.41864 49.63050 39054 ft 442 kts 302°
2026-05-04 15:50 27.43851 49.60415 38391 ft 442 kts 302°
2026-05-04 15:51 27.45814 49.57806 37564 ft 443 kts 302°
2026-05-04 15:51 27.47894 49.55205 36684 ft 451 kts 308°
2026-05-04 15:51 27.50264 49.52824 35801 ft 459 kts 312°
2026-05-04 15:51 27.52738 49.50521 34904 ft 464 kts 313°
2026-05-04 15:52 27.55266 49.48233 34026 ft 469 kts 314°
2026-05-04 15:52 27.57830 49.45948 33154 ft 471 kts 315°
2026-05-04 15:52 27.60414 49.43653 32294 ft 472 kts 315°
2026-05-04 15:52 27.62990 49.41364 31407 ft 473 kts 315°
2026-05-04 15:53 27.65571 49.39062 30524 ft 474 kts 316°
2026-05-04 15:53 27.67281 49.37532 29970 ft 474 kts 316°
2026-05-04 15:53 27.69865 49.35217 29150 ft 472 kts 316°
2026-05-04 15:53 27.73287 49.32146 28103 ft 467 kts 316°
2026-05-04 15:54 27.74974 49.30630 27624 ft 465 kts 316°
2026-05-04 15:54 27.77489 49.28368 26915 ft 461 kts 316°
2026-05-04 15:54 27.80000 49.26107 26203 ft 458 kts 316°
2026-05-04 15:54 27.82479 49.23872 25548 ft 454 kts 317°
2026-05-04 15:55 27.84938 49.21654 24877 ft 450 kts 317°
2026-05-04 15:55 27.87440 49.19529 24220 ft 450 kts 323°
2026-05-04 15:55 27.90099 49.17664 23563 ft 448 kts 324°
2026-05-04 15:55 27.92737 49.15884 22860 ft 446 kts 325°
2026-05-04 15:56 27.95407 49.14121 22195 ft 441 kts 326°
2026-05-04 15:56 27.98052 49.12393 21845 ft 437 kts 326°
2026-05-04 15:56 28.00685 49.10677 21771 ft 437 kts 326°
2026-05-04 15:56 28.03310 49.08962 21770 ft 436 kts 326°
2026-05-04 15:57 28.05941 49.07240 21768 ft 436 kts 326°
2026-05-04 15:57 28.08571 49.05513 21771 ft 436 kts 326°
2026-05-04 15:57 28.11187 49.03793 21774 ft 436 kts 326°
2026-05-04 15:57 28.13808 49.02068 21770 ft 436 kts 326°
2026-05-04 15:58 28.16438 49.00336 21770 ft 436 kts 326°
2026-05-04 15:58 28.19037 48.98622 21771 ft 436 kts 326°
2026-05-04 15:58 28.21695 48.96870 21771 ft 436 kts 326°
2026-05-04 15:58 28.24289 48.95158 21771 ft 436 kts 326°
2026-05-04 15:59 28.26912 48.93427 21771 ft 436 kts 326°
2026-05-04 15:59 28.29546 48.91689 21774 ft 437 kts 326°
2026-05-04 15:59 28.32166 48.89960 21773 ft 437 kts 326°
2026-05-04 15:59 28.34793 48.88220 21772 ft 437 kts 326°
2026-05-04 16:00 28.37425 48.86476 21768 ft 437 kts 326°
2026-05-04 16:00 28.40051 48.84732 21775 ft 437 kts 326°
2026-05-04 16:00 28.42676 48.82991 21773 ft 437 kts 326°
2026-05-04 16:00 28.45289 48.81257 21590 ft 429 kts 326°
2026-05-04 16:01 28.47857 48.79556 20843 ft 427 kts 326°
2026-05-04 16:01 28.50417 48.77858 20157 ft 424 kts 326°
2026-05-04 16:01 28.52952 48.76175 19560 ft 418 kts 326°
2026-05-04 16:01 28.55417 48.74525 18963 ft 412 kts 325°
2026-05-04 16:02 28.57641 48.72508 18403 ft 402 kts 311°
2026-05-04 16:02 28.59439 48.70107 18092 ft 397 kts 306°
2026-05-04 16:02 28.62703 48.65311 17597 ft 369 kts 305°
2026-05-04 16:03 28.64239 48.63020 17326 ft 356 kts 304°
2026-05-04 16:03 28.65690 48.60848 17089 ft 343 kts 304°
2026-05-04 16:03 28.67112 48.58714 16849 ft 331 kts 304°
2026-05-04 16:03 28.68478 48.56659 16649 ft 320 kts 304°
2026-05-04 16:04 28.69799 48.54672 16430 ft 308 kts 303°
2026-05-04 16:04 28.72331 48.50854 15705 ft 298 kts 303°
2026-05-04 16:04 28.73733 48.49093 15243 ft 301 kts 315°
2026-05-04 16:05 28.75488 48.47767 14801 ft 304 kts 326°
2026-05-04 16:05 28.77322 48.46632 14381 ft 303 kts 326°
2026-05-04 16:05 28.81031 48.44363 13484 ft 301 kts 326°
2026-05-04 16:06 28.82866 48.43231 13009 ft 300 kts 326°
2026-05-04 16:06 28.87757 48.40197 11740 ft 297 kts 327°
2026-05-04 16:07 28.90151 48.38710 11156 ft 294 kts 327°
2026-05-04 16:07 28.95505 48.35377 9867 ft 290 kts 327°
2026-05-04 16:08 28.97276 48.34274 9419 ft 288 kts 328°
2026-05-04 16:08 29.02520 48.31009 8103 ft 284 kts 329°
2026-05-04 16:09 29.05997 48.28838 7991 ft 285 kts 329°
2026-05-04 16:09 29.09333 48.26757 7998 ft 263 kts 329°
2026-05-04 16:10 29.12529 48.24758 7996 ft 261 kts 329°
2026-05-04 16:11 29.17341 48.21752 7378 ft 263 kts 329°
2026-05-04 16:11 29.18941 48.20749 6993 ft 262 kts 329°
2026-05-04 16:12 29.23695 48.17777 5907 ft 257 kts 330°
2026-05-04 16:12 29.28365 48.14845 4693 ft 257 kts 330°
2026-05-04 16:13 29.31429 48.12901 4244 ft 241 kts 330°
2026-05-04 16:13 29.34270 48.11076 3711 ft 232 kts 331°
2026-05-04 16:14 29.37079 48.09224 3048 ft 232 kts 330°
2026-05-04 16:14 29.39877 48.07357 3014 ft 231 kts 330°
2026-05-04 16:15 29.44069 48.04535 2993 ft 233 kts 330°
2026-05-04 16:16 29.46295 48.01980 2995 ft 223 kts 286°
2026-05-04 16:16 29.45686 47.96952 2513 ft 209 kts 254°
2026-05-04 16:17 29.44956 47.93742 2496 ft 209 kts 253°
2026-05-04 16:18 29.43666 47.88973 2496 ft 210 kts 236°
2026-05-04 16:18 29.42806 47.87637 2457 ft 196 kts 217°
2026-05-04 16:19 29.39688 47.87833 2512 ft 141 kts 151°
2026-05-04 16:19 29.37896 47.88777 2496 ft 143 kts 152°
2026-05-04 16:20 29.35157 47.90223 2402 ft 145 kts 152°
2026-05-04 16:20 29.33348 47.91189 2048 ft 142 kts 152°
2026-05-04 16:21 29.30672 47.92619 1522 ft 141 kts 152°
2026-05-04 16:22 29.28902 47.93565 1163 ft 139 kts 152°
2026-05-04 16:22 29.26272 47.94969 658 ft 140 kts 153°
2026-05-04 16:23 29.23654 47.96367 379 ft 126 kts 153°
2026-05-04 16:24 29.19868 47.98191 2211 ft 151 kts 155°
2026-05-04 16:25 29.17933 47.98941 2956 ft 148 kts 168°
2026-05-04 16:26 29.15700 47.94957 2999 ft 162 kts 253°
2026-05-04 16:26 29.14888 47.91234 2991 ft 160 kts 253°
2026-05-04 16:27 29.14793 47.88735 2994 ft 166 kts 299°
2026-05-04 16:28 29.17676 47.86941 2995 ft 159 kts 343°
2026-05-04 16:28 29.20826 47.85679 2996 ft 160 kts 343°
2026-05-04 16:29 29.25005 47.84072 2994 ft 158 kts 343°
2026-05-04 16:30 29.28157 47.82855 2996 ft 160 kts 343°
2026-05-04 16:31 29.30248 47.82036 2997 ft 158 kts 343°
2026-05-04 16:31 29.33391 47.80830 2998 ft 158 kts 343°
2026-05-04 16:32 29.36543 47.80036 2638 ft 153 kts 28°
2026-05-04 16:33 29.37856 47.81726 2503 ft 144 kts 63°
2026-05-04 16:33 29.38846 47.83720 2499 ft 144 kts 64°
2026-05-04 16:34 29.39346 47.84738 2500 ft 144 kts 64°
2026-05-04 16:34 29.40007 47.86070 2496 ft 143 kts 63°
2026-05-04 16:35 29.39293 47.89056 2479 ft 143 kts 143°
2026-05-04 16:35 29.36461 47.90046 2492 ft 143 kts 168°
2026-05-04 16:36 29.35486 47.90259 2497 ft 143 kts 167°
2026-05-04 16:36 29.33589 47.90889 2346 ft 143 kts 155°
2026-05-04 16:37 29.32124 47.91711 2081 ft 140 kts 147°
2026-05-04 16:37 29.30963 47.92375 1959 ft 140 kts 152°
2026-05-04 16:37 29.29168 47.93366 1403 ft 142 kts 150°
2026-05-04 16:38 29.27723 47.94191 997 ft 136 kts 152°
2026-05-04 16:39 29.25096 47.95591 461 ft 138 kts 151°
2026-05-04 16:39 29.23335 47.96552 224 ft 145 kts 155°
2026-05-04 16:40 29.21988 47.97303 226 ft 42 kts 120°
2026-05-04 16:40 29.21935 47.97451 223 ft 0 kts 85°
2026-05-04 16:41 29.21941 47.97475 218 ft 3 kts 59°
2026-05-04 16:41 29.22035 47.97475 217 ft 8 kts 342°
2026-05-04 16:42 29.22205 47.97378 219 ft 12 kts 334°
2026-05-04 16:43 29.22403 47.97274 222 ft 19 kts 338°
2026-05-04 16:43 29.22693 47.97121 219 ft 27 kts 335°
2026-05-04 16:43 29.22871 47.97028 224 ft 30 kts 335°
2026-05-04 16:44 29.23450 47.96931 214 ft 25 kts 64°
2026-05-04 16:45 29.23618 47.97171 181 ft 8 kts 347°